EW7993 Weather Reports


Display with metric or nautical units.
time (UTC)temp
F
wind
direction
speed
MPH
gust
MPH
rain 1hr
in
rain 24hr
in
rain mn
in
humidity
%
barometer
mb
20210917125549 74 70 1.0 6.0 0.00 0.05 0.01 94 1020.4
20210917124618 74 62 2.0 11.0 0.00 0.05 0.01 94 1020.5
20210917124050 74 83 3.0 11.0 0.00 0.05 0.01 95 1020.4
20210917123610 73 326 2.0 8.0 0.00 0.05 0.01 95 1020.4
20210917123128 73 59 2.0 6.0 0.00 0.05 0.01 95 1020.3
20210917122600 73 70 2.0 6.0 0.00 0.05 0.01 95 1020.3
20210917122050 73 59 1.0 7.0 0.00 0.05 0.01 95 1020.4
20210917121622 73 341 2.0 8.0 0.00 0.05 0.01 95 1020.3
20210917121050 73 65 3.0 8.0 0.00 0.05 0.01 95 1020.4
20210917120544 73 66 2.0 8.0 0.00 0.05 0.01 95 1020.4
20210917120116 73 63 3.0 8.0 0.00 0.05 0.01 95 1020.3
20210917115553 73 41 2.0 8.0 0.00 0.05 0.01 95 1020.3
20210917114550 73 113 2.0 8.0 0.00 0.05 0.01 95 1020.3
20210917114043 73 30 0.0 7.0 0.00 0.05 0.01 95 1020.3
20210917113543 73 4 3.0 6.0 0.00 0.05 0.01 96 1020.3
20210917113113 72 70 0.0 4.0 0.00 0.05 0.01 96 1020.2
20210917112546 72 55 1.0 4.0 0.00 0.05 0.01 96 1020.1
20210917112055 72 98 0.0 5.0 0.00 0.05 0.01 96 1020.0
20210917111654 72 102 0.0 5.0 0.00 0.05 0.01 96 1020.0
20210917111045 72 76 1.0 5.0 0.01 0.05 0.01 96 1019.9
20210917110545 72 55 1.0 8.0 0.01 0.05 0.01 96 1019.9
20210917110150 72 62 1.0 9.0 0.01 0.05 0.01 96 1019.9
20210917105557 72 79 3.0 9.0 0.01 0.05 0.01 96 1019.9
20210917104622 72 73 6.0 9.0 0.01 0.05 0.01 96 1019.7
20210917104041 72 63 3.0 8.0 0.01 0.05 0.01 96 1019.6
20210917103541 72 72 3.0 7.0 0.01 0.05 0.01 96 1019.6
20210917103102 72 84 2.0 6.0 0.01 0.05 0.01 96 1019.5
20210917102540 72 46 2.0 8.0 0.01 0.05 0.01 96 1019.5
20210917102058 72 54 4.0 9.0 0.01 0.05 0.01 96 1019.4
20210917101619 72 71 4.0 9.0 0.01 0.05 0.01 96 1019.3
20210917101039 72 60 5.0 9.0 0.00 0.04 0.00 96 1019.3
20210917100540 72 72 5.0 8.0 0.00 0.04 0.00 96 1019.3
20210917100042 72 55 4.0 9.0 0.00 0.04 0.00 96 1019.2
20210917095642 72 68 3.0 9.0 0.00 0.04 0.00 96 1019.2
20210917094607 72 69 2.0 5.0 0.00 0.04 0.00 97 1019.2
20210917094039 72 110 0.0 5.0 0.00 0.04 0.00 97 1019.2
20210917093539 72 61 2.0 5.0 0.00 0.04 0.00 97 1019.2
20210917093117 72 64 0.0 5.0 0.00 0.04 0.00 97 1019.2
20210917092555 72 45 1.0 5.0 0.00 0.04 0.00 97 1019.1
20210917092037 72 44 1.0 5.0 0.00 0.04 0.00 97 1019.2
20210917091630 71 105 0.0 2.0 0.00 0.04 0.00 96 1019.2
20210917091037 71 73 0.0 2.0 0.00 0.04 0.00 96 1019.1
20210917090539 71 19 0.0 4.0 0.00 0.04 0.00 96 1019.2
20210917085537 71 77 0.0 5.0 0.00 0.04 0.00 96 1019.1
20210917084612 71 104 2.0 6.0 0.00 0.04 0.00 96 1019.1
20210917084035 72 39 1.0 7.0 0.00 0.04 0.00 96 1019.1
20210917083536 72 84 3.0 8.0 0.00 0.04 0.00 96 1019.2
20210917083049 72 58 3.0 9.0 0.00 0.04 0.00 96 1019.2
20210917082537 72 60 5.0 9.0 0.00 0.04 0.00 96 1019.2
20210917082033 72 83 4.0 7.0 0.00 0.04 0.00 95 1019.1
20210917081604 73 55 2.0 6.0 0.00 0.04 0.00 95 1019.2
20210917081034 73 39 1.0 4.0 0.00 0.04 0.00 95 1019.1
20210917080535 73 68 0.0 5.0 0.00 0.04 0.00 95 1019.1
20210917080034 73 61 2.0 6.0 0.00 0.04 0.00 95 1019.1
20210917075533 73 37 0.0 9.0 0.00 0.04 0.00 95 1019.1
20210917074607 72 67 0.0 5.0 0.00 0.04 0.00 95 1019.2
20210917074029 73 53 1.0 5.0 0.00 0.04 0.00 95 1019.2
20210917073529 73 72 0.0 5.0 0.00 0.04 0.00 95 1019.2
20210917073032 73 77 1.0 6.0 0.00 0.04 0.00 95 1019.2
20210917072534 73 78 2.0 8.0 0.00 0.04 0.00 95 1019.1
20210917072050 73 58 4.0 10.0 0.00 0.04 0.00 95 1019.0
20210917071546 73 68 6.0 10.0 0.00 0.04 0.00 95 1019.1
20210917071035 73 67 4.0 10.0 0.00 0.04 0.00 95 1019.1
20210917070527 73 72 5.0 8.0 0.00 0.04 0.00 95 1019.1
20210917070036 73 130 4.0 8.0 0.00 0.04 0.00 95 1019.1
20210917065530 73 39 4.0 7.0 0.00 0.04 0.00 95 1019.0
20210917064603 73 103 4.0 11.0 0.00 0.04 0.00 95 1019.0
20210917064031 73 55 6.0 11.0 0.00 0.04 0.00 95 1019.1
20210917063539 73 63 5.0 10.0 0.00 0.04 0.00 94 1019.2
20210917063055 73 68 4.0 12.0 0.00 0.04 0.00 94 1019.1
20210917062524 73 48 4.0 10.0 0.00 0.04 0.00 95 1019.2
20210917062024 73 53 5.0 10.0 0.00 0.04 0.00 95 1019.2
20210917061601 73 67 6.0 12.0 0.00 0.04 0.00 95 1019.2
20210917061045 73 70 5.0 11.0 0.00 0.04 0.00 95 1019.3
20210917060521 73 58 6.0 12.0 0.00 0.04 0.00 95 1019.3
20210917060030 73 80 5.0 12.0 0.00 0.04 0.00 95 1019.3
20210917055521 73 68 6.0 12.0 0.00 0.04 0.00 95 1019.3
20210917054522 73 68 4.0 10.0 0.00 0.04 0.00 96 1019.4
20210917054016 73 54 6.0 10.0 0.00 0.04 0.00 96 1019.5
20210917053516 73 74 5.0 11.0 0.00 0.04 0.00 96 1019.5
20210917053016 73 72 5.0 11.0 0.00 0.04 0.00 96 1019.6
20210917052513 73 63 4.0 7.0 0.00 0.04 0.00 96 1019.6
20210917052013 73 86 2.0 6.0 0.00 0.04 0.00 96 1019.6
20210917051530 73 79 1.0 5.0 0.00 0.04 0.00 96 1019.6
20210917051012 73 72 2.0 5.0 0.00 0.04 0.00 96 1019.6
20210917050516 73 78 0.0 3.0 0.00 0.04 0.00 97 1019.6
20210917050054 73 72 0.0 3.0 0.00 0.04 0.00 96 1019.6
20210917045513 73 65 0.0 3.0 0.00 0.04 0.00 96 1019.7
20210917045035 73 70 0.0 2.0 0.00 0.04 0.00 96 1019.6
20210917044511 73 46 0.0 2.0 0.00 0.04 0.00 96 1019.6
20210917044010 73 75 0.0 6.0 0.00 0.04 0.00 96 1019.6
20210917043511 73 328 1.0 6.0 0.00 0.04 0.00 96 1019.6
20210917043023 73 295 0.0 1.0 0.00 0.04 0.00 96 1019.7
20210917042513 73 60 0.0 2.0 0.00 0.04 0.00 96 1019.7
20210917041541 73 15 0.0 3.0 0.00 0.04 0.00 96 1019.7
20210917041010 73 17 0.0 4.0 0.00 0.04 0.00 95 1019.7
20210917040508 73 24 0.0 4.0 0.00 0.04 0.00 95 1019.8
20210917040010 73 10 0.0 4.0 0.00 0.04 0.00 95 1019.8
20210917035506 73 37 1.0 4.0 0.00 0.04 0.04 96 1019.9
20210917035007 73 52 1.0 4.0 0.00 0.04 0.04 96 1019.9
20210917034508 73 37 1.0 3.0 0.00 0.04 0.04 96 1019.9
20210917034006 73 81 1.0 4.0 0.00 0.04 0.04 96 1019.9
20210917033506 73 66 0.0 4.0 0.00 0.04 0.04 96 1019.8
20210917033034 73 25 0.0 1.0 0.00 0.04 0.04 96 1019.8
20210917032506 73 20 0.0 2.0 0.00 0.04 0.04 96 1019.8
20210917031514 73 333 0.0 3.0 0.00 0.04 0.04 96 1019.8
20210917031011 73 78 0.0 1.0 0.00 0.04 0.04 96 1019.9
20210917030511 73 73 0.0 2.0 0.00 0.04 0.04 96 1019.9
20210917030015 73 73 0.0 3.0 0.00 0.04 0.04 96 1019.9
20210917025512 73 66 1.0 4.0 0.00 0.04 0.04 96 1020.0
20210917025010 73 78 1.0 4.0 0.00 0.04 0.04 96 1020.0
20210917024542 73 72 0.0 5.0 0.00 0.04 0.04 96 1020.1
20210917024016 73 69 3.0 5.0 0.00 0.04 0.04 97 1020.1
20210917023510 73 66 1.0 4.0 0.00 0.04 0.04 97 1020.0
20210917023020 73 72 0.0 2.0 0.00 0.04 0.04 97 1020.0
20210917022510 73 64 0.0 2.0 0.00 0.04 0.04 97 1020.0
20210917021522 73 51 0.0 3.0 0.00 0.04 0.04 97 1020.1
20210917021009 73 61 0.0 3.0 0.00 0.04 0.04 97 1020.2
20210917020509 73 113 0.0 1.0 0.00 0.04 0.04 97 1020.3
20210917020012 73 113 0.0 2.0 0.00 0.04 0.04 97 1020.2
20210917015521 73 58 0.0 3.0 0.00 0.04 0.04 96 1020.2
20210917015012 73 85 0.0 3.0 0.00 0.04 0.04 96 1020.2
20210917014527 73 76 0.0 3.0 0.00 0.04 0.04 97 1020.3
20210917014009 73 82 0.0 1.0 0.00 0.04 0.04 97 1020.2
20210917013510 73 77 0.0 2.0 0.00 0.04 0.04 97 1020.2
20210917013014 73 79 0.0 3.0 0.00 0.04 0.04 97 1020.3
20210917012508 73 37 1.0 3.0 0.00 0.04 0.04 97 1020.4
20210917011509 73 63 1.0 4.0 0.00 0.04 0.04 97 1020.2
20210917011005 73 54 1.0 4.0 0.00 0.04 0.04 97 1020.1
20210917010505 73 32 0.0 2.0 0.00 0.04 0.04 97 1020.1
20210917010001 73 266 0.0 1.0 0.00 0.04 0.04 97 1020.0
20210917005609 73 127 0.0 2.0 0.00 0.04 0.04 96 1020.0
20210917005004 73 129 0.0 2.0 0.00 0.04 0.04 96 1019.9
20210917004628 73 86 0.0 2.0 0.00 0.04 0.04 96 1019.9
20210917004502 73 86 0.0 1.0 0.00 0.04 0.04 96 1020.0
20210917004100 73 104 0.0 2.0 0.00 0.04 0.04 96 1019.9
20210917004009 73 104 0.0 2.0 0.00 0.04 0.04 96 1020.0
20210917003600 73 46 0.0 2.0 0.00 0.04 0.04 96 1020.0
20210917003135 73 75 0.0 3.0 0.00 0.04 0.04 96 1020.0
20210917002558 73 72 1.0 4.0 0.00 0.04 0.04 96 1019.9
20210917001640 73 67 3.0 6.0 0.00 0.04 0.04 96 1019.8
20210917001118 73 72 2.0 5.0 0.00 0.04 0.04 96 1019.8
20210917000610 73 79 3.0 5.0 0.00 0.04 0.04 96 1019.7
20210917000134 73 91 1.0 3.0 0.00 0.04 0.04 96 1019.7
20210916235558 73 68 0.0 3.0 0.00 0.04 0.04 96 1019.6
20210916235054 73 99 0.0 4.0 0.00 0.04 0.04 96 1019.5
20210916234557 73 100 1.0 6.0 0.00 0.04 0.04 96 1019.5
20210916234100 73 77 1.0 6.0 0.00 0.04 0.04 96 1019.5
20210916233553 73 61 2.0 8.0 0.00 0.04 0.04 96 1019.5
20210916233133 73 67 2.0 10.0 0.00 0.04 0.04 96 1019.6
20210916232558 73 72 4.0 10.0 0.00 0.04 0.04 96 1019.5
20210916231710 73 54 1.0 8.0 0.00 0.04 0.04 96 1019.6
20210916231053 73 53 1.0 4.0 0.00 0.04 0.04 96 1019.5
20210916230553 73 73 0.0 4.0 0.00 0.04 0.04 96 1019.5
20210916230121 73 101 0.0 5.0 0.00 0.04 0.04 96 1019.5
20210916225600 73 28 0.0 5.0 0.01 0.04 0.04 96 1019.4
20210916225052 73 72 1.0 4.0 0.01 0.04 0.04 96 1019.3
20210916224719 73 57 1.0 5.0 0.02 0.04 0.04 96 1019.4
20210916224055 74 70 3.0 7.0 0.03 0.04 0.04 96 1019.3
20210916223557 74 69 2.0 9.0 0.03 0.04 0.04 96 1019.3
20210916223134 74 62 5.0 9.0 0.04 0.04 0.04 96 1019.3
20210916222550 74 76 5.0 9.0 0.04 0.04 0.04 96 1019.1
20210916221627 74 87 5.0 8.0 0.04 0.04 0.04 96 1019.0
20210916221140 74 75 5.0 11.0 0.04 0.04 0.04 96 1019.0
20210916220550 74 75 7.0 12.0 0.04 0.04 0.04 95 1019.0
20210916220113 74 72 8.0 12.0 0.04 0.04 0.04 95 1019.1
20210916215550 74 90 6.0 9.0 0.03 0.03 0.03 95 1019.2
20210916215056 74 58 5.0 9.0 0.03 0.03 0.03 95 1019.1
20210916214622 74 70 5.0 8.0 0.03 0.03 0.03 94 1019.1
20210916214103 75 78 5.0 8.0 0.02 0.02 0.02 94 1019.0
20210916213608 75 73 5.0 8.0 0.01 0.01 0.01 94 1018.9
20210916213144 75 77 5.0 11.0 0.01 0.01 0.01 93 1018.7
20210916212557 75 60 6.0 11.0 0.00 0.00 0.00 93 1018.6
20210916211612 76 67 6.0 10.0 0.00 0.00 0.00 92 1018.6
20210916211044 76 67 5.0 12.0 0.00 0.00 0.00 91 1018.6
20210916210545 76 112 6.0 12.0 0.00 0.00 0.00 91 1018.6
20210916210156 77 54 7.0 13.0 0.00 0.00 0.00 90 1018.6
20210916205544 77 63 7.0 14.0 0.00 0.00 0.00 90 1018.6
20210916205044 77 85 6.0 14.0 0.00 0.00 0.00 89 1018.6
20210916204551 78 88 6.0 11.0 0.00 0.00 0.00 89 1018.6
20210916204042 78 77 6.0 11.0 0.00 0.00 0.00 87 1018.7
20210916203543 78 108 6.0 10.0 0.00 0.00 0.00 87 1018.7
20210916203104 78 110 6.0 11.0 0.00 0.00 0.00 87 1018.6
20210916202543 78 71 5.0 11.0 0.00 0.00 0.00 88 1018.5
20210916201628 79 92 5.0 9.0 0.00 0.00 0.00 87 1018.4
20210916201047 79 77 6.0 9.0 0.00 0.00 0.00 87 1018.2
20210916200543 79 46 6.0 13.0 0.00 0.00 0.00 87 1018.1
20210916200129 79 67 9.0 13.0 0.00 0.00 0.00 87 1018.1
20210916195607 79 72 6.0 11.0 0.00 0.00 0.00 86 1018.0
20210916195048 79 65 6.0 11.0 0.00 0.00 0.00 86 1018.0
20210916194725 80 85 5.0 9.0 0.00 0.00 0.00 86 1018.0
20210916194142 80 68 5.0 9.0 0.00 0.00 0.00 86 1018.0
20210916193542 80 76 6.0 9.0 0.00 0.00 0.00 85 1017.7
20210916193209 80 89 4.0 10.0 0.00 0.00 0.00 85 1017.8
20210916192549 80 63 4.0 11.0 0.00 0.00 0.00 85 1017.7
20210916191616 80 53 5.0 11.0 0.00 0.00 0.00 86 1017.6
20210916191042 80 46 5.0 11.0 0.00 0.00 0.00 85 1017.6
20210916190554 80 77 6.0 11.0 0.00 0.00 0.00 84 1017.7
20210916190117 80 49 2.0 9.0 0.00 0.00 0.00 85 1017.8
20210916185549 80 59 4.0 11.0 0.00 0.00 0.00 85 1017.8
20210916185043 80 67 6.0 12.0 0.00 0.00 0.00 85 1017.7
20210916184629 80 76 6.0 12.0 0.00 0.00 0.00 85 1017.8
20210916184041 80 60 5.0 7.0 0.00 0.00 0.00 85 1017.9
20210916183547 80 67 4.0 10.0 0.00 0.00 0.00 85 1017.9
20210916183119 80 73 4.0 10.0 0.00 0.00 0.00 85 1018.0
20210916182603 80 65 6.0 10.0 0.00 0.00 0.00 85 1018.1
20210916181607 80 60 4.0 8.0 0.00 0.00 0.00 84 1018.5
20210916181042 80 59 4.0 8.0 0.00 0.00 0.00 84 1018.5
20210916180545 80 77 4.0 9.0 0.00 0.00 0.00 85 1018.5
20210916180106 81 71 3.0 8.0 0.00 0.00 0.00 84 1018.6
20210916175551 81 81 4.0 8.0 0.00 0.00 0.00 84 1018.6
20210916175055 81 60 4.0 7.0 0.00 0.00 0.00 83 1018.6
20210916174554 81 66 3.0 7.0 0.00 0.00 0.00 83 1018.6
20210916174043 81 61 5.0 8.0 0.00 0.00 0.00 82 1018.7
20210916173540 81 111 4.0 9.0 0.00 0.00 0.00 82 1018.8
20210916173148 81 102 5.0 9.0 0.00 0.00 0.00 82 1018.8
20210916172540 81 104 4.0 10.0 0.00 0.00 0.00 82 1018.7
20210916171548 82 105 6.0 11.0 0.00 0.00 0.00 82 1018.6
20210916171050 82 77 6.0 12.0 0.00 0.00 0.00 81 1018.8
20210916170539 82 68 6.0 12.0 0.00 0.00 0.00 81 1018.8
20210916170110 82 65 7.0 11.0 0.00 0.00 0.00 81 1018.9
20210916165538 82 78 5.0 12.0 0.00 0.00 0.00 81 1018.8
20210916165037 82 72 7.0 12.0 0.00 0.00 0.00 80 1018.8
20210916164626 82 79 7.0 12.0 0.00 0.00 0.00 81 1018.7
20210916164035 82 68 5.0 12.0 0.00 0.00 0.00 82 1018.8
20210916163536 82 69 5.0 10.0 0.00 0.00 0.00 84 1018.8
20210916163114 82 96 5.0 9.0 0.00 0.00 0.00 83 1018.8
20210916162612 82 72 4.0 11.0 0.00 0.00 0.00 84 1018.7
20210916161536 81 89 5.0 12.0 0.00 0.00 0.00 84 1018.8
20210916161030 82 62 4.0 9.0 0.00 0.00 0.00 83 1018.9
20210916160545 81 73 3.0 11.0 0.00 0.00 0.00 84 1018.9
20210916160051 80 70 5.0 11.0 0.00 0.00 0.00 85 1018.9
20210916155600 80 68 5.0 9.0 0.00 0.00 0.00 86 1018.9
20210916155026 80 73 4.0 11.0 0.00 0.00 0.00 86 1018.9
20210916154527 80 84 5.0 11.0 0.00 0.00 0.00 86 1019.0
20210916154026 80 72 4.0 8.0 0.00 0.00 0.00 86 1018.9
20210916153555 80 79 3.0 7.0 0.00 0.00 0.00 86 1019.0
20210916153027 79 65 1.0 7.0 0.00 0.00 0.00 88 1019.0
20210916152533 79 72 4.0 7.0 0.00 0.00 0.00 87 1019.0
20210916151601 79 72 3.0 6.0 0.00 0.00 0.00 88 1019.0
20210916151023 79 176 0.0 6.0 0.00 0.00 0.00 89 1019.0
20210916150524 79 75 3.0 7.0 0.00 0.00 0.00 88 1019.0
20210916150025 78 78 4.0 7.0 0.00 0.00 0.00 89 1018.9
20210916145536 78 63 2.0 7.0 0.00 0.00 0.00 90 1018.9
20210916145026 78 63 3.0 7.0 0.00 0.00 0.00 89 1018.8
20210916144529 78 82 2.0 6.0 0.00 0.00 0.00 91 1018.9
20210916144018 78 81 2.0 6.0 0.00 0.00 0.00 91 1018.9
20210916143521 77 72 2.0 6.0 0.00 0.00 0.00 92 1018.9
20210916143109 76 72 1.0 4.0 0.00 0.00 0.00 93 1018.9
20210916142523 76 74 1.0 5.0 0.00 0.00 0.00 93 1018.9
20210916141612 76 77 3.0 7.0 0.00 0.00 0.00 93 1018.9
20210916141026 76 125 3.0 7.0 0.00 0.00 0.00 94 1018.9
20210916140557 76 70 4.0 7.0 0.00 0.00 0.00 94 1018.8
20210916140034 75 115 5.0 7.0 0.00 0.00 0.00 94 1018.8
20210916135524 75 74 4.0 7.0 0.00 0.00 0.00 95 1018.8
20210916135030 75 64 3.0 8.0 0.00 0.00 0.00 96 1018.8
20210916134535 75 97 5.0 8.0 0.00 0.00 0.00 96 1018.6
20210916134024 75 102 3.0 8.0 0.00 0.00 0.00 96 1018.6
20210916133522 74 80 5.0 8.0 0.00 0.00 0.00 96 1018.6
20210916133030 74 73 5.0 8.0 0.00 0.00 0.00 96 1018.6
20210916132523 74 75 5.0 8.0 0.00 0.00 0.00 96 1018.5
20210916131524 74 97 4.0 8.0 0.00 0.00 0.00 96 1018.4
20210916131012 74 65 2.0 8.0 0.00 0.00 0.00 96 1018.5
20210916130507 74 63 5.0 8.0 0.00 0.00 0.00 96 1018.4
20210916130015 74 64 2.0 5.0 0.00 0.00 0.00 96 1018.3